Tracking 29892 objects as of 21-Nov-2024
HD Live streaming from Space Station
objects crossing your sky now

OBJECT E

Track OBJECT E now!
10-day predictions


NORAD ID: 61193
Int'l Code: 2024-169E
Perigee: 537.2 km
Apogee: 548.6 km
Inclination: 97.6 °
Period: 95.4 minutes
Semi major axis: 6913 km
RCS: Unknown
Launch date: September 20, 2024
Source: People's Republic of China (PRC)
Launch site: Taiyaun Space Center, China (TSC)
Your satellite tracking list
Your tracking list is empty




NASA's NSSDC Master Catalog

Two Line Element Set (TLE):
1 61193U 24169E   24326.16922075  .00010153  00000-0  62564-3 0  9997
2 61193  97.5955  51.0617 0008229 103.9164 256.2981 15.10132721  9350
Source of the keplerian elements: AFSPC